Glencoe, MN

1:35 AM CDT on April 30, 2017 (GMT -0500)
Glencoe Municipal

Weather History for KGYL - May, 2013

Change the Weather History Date:

Saturday, May 25, 2013

  Actual Average (KHCD) Record (KHCD)
Temperature  
Mean Temperature 55 °F -  
Max Temperature 58 °F 72 °F 94 °F (1978)
Min Temperature 52 °F 49 °F 33 °F (1974)
Degree Days  
Heating Degree Days 10    
Growing Degree Days 5 (Base 50)    
Moisture  
Dew Point 47 °F    
Average Humidity 75    
Maximum Humidity 85    
Minimum Humidity 66    
Precipitation  
Precipitation 0.02 in - - ()
Sea Level Pressure  
Sea Level Pressure 30.21 in    
Wind  
Wind Speed 12 mph (ESE)    
Max Wind Speed 23 mph    
Max Gust Speed 29 mph    
Visibility 10 miles    
Events Rain    
Averages and records for this station are not official NWS values.
T = Trace of Precipitation, MM = Missing Value Source: NWS Daily Summary

Daily Weather History Graph

Daily Weather History Graph

Search for Another Location

Airport or City:

Trip Planner

Search our weather history database for the weather conditions in past years. The results will help you decide how hot, cold, wet, or windy it might be!

Date:

Astronomy

May. 25, 2013 Rise Set
Actual Time 5:38 AM CDT 8:48 PM CDT
Civil Twilight 5:02 AM CDT 9:24 PM CDT
Nautical Twilight 4:17 AM CDT 10:10 PM CDT
Astronomical Twilight 3:21 AM CDT 11:06 PM CDT
Moon 9:37 PM CDT (5/25) 6:06 AM CDT (5/25)
Length of Visible Light 16h 21m
Length of Day
15h 10m
Full, 100% of the Moon is Illuminated
May 25
Full
May 31
Last Quarter
Jun 8
New
Jun 16
First Quarter
Jun 23
Full

Hourly Weather History & Observations

Time (CDT) Temp. Dew Point Humidity Pressure Visibility Wind Dir Wind Speed Gust Speed Precip Events Conditions
12:15 AM 55.4 °F 48.4 °F 77% 30.23 in 10.0 mi East 6.9 mph - N/A   Overcast
12:34 AM 54.9 °F 49.1 °F 81% 30.22 in 10.0 mi East 8.1 mph - 0.01 in Rain Light Rain
12:54 AM 54.5 °F 49.1 °F 82% 30.22 in 10.0 mi East 10.4 mph - 0.01 in   Overcast
1:15 AM 54.5 °F 48.9 °F 81% 30.22 in 10.0 mi ESE 9.2 mph - N/A   Overcast
1:35 AM 54.5 °F 48.6 °F 80% 30.22 in 10.0 mi ESE 9.2 mph - 0.01 in Rain Light Rain
1:54 AM 54.3 °F 48.9 °F 82% 30.21 in 10.0 mi East 10.4 mph - 0.01 in   Overcast
2:15 AM 54.1 °F 48.7 °F 82% 30.19 in 10.0 mi East 11.5 mph - N/A   Overcast
2:35 AM 54.1 °F 48.7 °F 82% 30.19 in 10.0 mi East 11.5 mph - N/A   Overcast
2:55 AM 54.1 °F 48.7 °F 82% 30.18 in 10.0 mi East 12.7 mph - N/A   Overcast
3:15 AM 54.5 °F 48.4 °F 80% 30.19 in 10.0 mi East 9.2 mph - N/A   Overcast
3:35 AM 54.0 °F 48.4 °F 81% 30.18 in 10.0 mi East 11.5 mph - N/A   Overcast
3:55 AM 54.0 °F 48.6 °F 82% 30.19 in 10.0 mi East 12.7 mph - N/A   Overcast
4:14 AM 54.0 °F 48.4 °F 81% 30.19 in 10.0 mi East 12.7 mph - N/A   Overcast
4:35 AM 54.0 °F 48.2 °F 81% 30.20 in 10.0 mi ESE 11.5 mph - N/A   Overcast
4:55 AM 53.8 °F 48.2 °F 81% 30.20 in 10.0 mi East 10.4 mph - N/A   Overcast
5:14 AM 54.0 °F 48.2 °F 81% 30.18 in 10.0 mi East 9.2 mph - N/A   Overcast
5:35 AM 54.1 °F 47.7 °F 79% 30.19 in 10.0 mi East 10.4 mph - N/A   Overcast
5:55 AM 53.8 °F 47.5 °F 79% 30.18 in 10.0 mi East 11.5 mph - N/A   Overcast
6:14 AM 53.8 °F 47.5 °F 79% 30.19 in 10.0 mi East 13.8 mph - N/A   Overcast
6:34 AM 53.8 °F 47.3 °F 79% 30.20 in 10.0 mi East 12.7 mph - N/A   Overcast
6:55 AM 54.0 °F 47.1 °F 78% 30.20 in 10.0 mi East 15.0 mph - N/A   Overcast
7:15 AM 54.5 °F 46.8 °F 75% 30.18 in 10.0 mi ESE 15.0 mph - N/A   Overcast
7:34 AM 54.5 °F 46.8 °F 75% 30.18 in 10.0 mi East 15.0 mph - N/A   Overcast
7:55 AM 55.4 °F 46.9 °F 73% 30.19 in 10.0 mi East 15.0 mph - N/A   Overcast
8:15 AM 55.8 °F 46.9 °F 72% 30.19 in 10.0 mi East 15.0 mph - N/A   Overcast
8:35 AM 55.8 °F 46.4 °F 71% 30.20 in 10.0 mi ESE 15.0 mph 21.9 mph N/A   Overcast
8:55 AM 56.3 °F 46.2 °F 69% 30.20 in 10.0 mi ESE 13.8 mph - N/A   Overcast
9:14 AM 56.7 °F 46.2 °F 68% 30.20 in 10.0 mi ESE 15.0 mph 19.6 mph N/A   Overcast
9:35 AM 57.0 °F 46.2 °F 67% 30.21 in 10.0 mi SE 11.5 mph 16.1 mph N/A   Overcast
9:55 AM 56.8 °F 45.9 °F 67% 30.20 in 10.0 mi ESE 12.7 mph 19.6 mph N/A   Overcast
10:14 AM 57.2 °F 46.0 °F 66% 30.20 in 10.0 mi ESE 12.7 mph - N/A   Overcast
10:35 AM 57.6 °F 46.2 °F 66% 30.20 in 10.0 mi ESE 12.7 mph 18.4 mph N/A   Overcast
10:55 AM 57.6 °F 46.8 °F 67% 30.21 in 10.0 mi ESE 16.1 mph 20.7 mph N/A   Overcast
11:14 AM 58.1 °F 47.1 °F 67% 30.22 in 10.0 mi SE 13.8 mph 20.7 mph N/A   Overcast
11:35 AM 57.6 °F 46.6 °F 67% 30.22 in 10.0 mi ESE 12.7 mph 20.7 mph N/A   Overcast
11:54 AM 57.6 °F 47.1 °F 68% 30.22 in 10.0 mi ESE 13.8 mph - N/A   Overcast
12:15 PM 57.2 °F 46.9 °F 69% 30.22 in 10.0 mi ESE 17.3 mph 21.9 mph N/A   Overcast
12:34 PM 56.3 °F 46.6 °F 70% 30.23 in 10.0 mi ESE 19.6 mph 24.2 mph N/A   Overcast
12:55 PM 56.3 °F 47.3 °F 72% 30.22 in 10.0 mi SE 16.1 mph 24.2 mph N/A   Overcast
1:15 PM 55.6 °F 48.6 °F 77% 30.22 in 10.0 mi ESE 19.6 mph 26.5 mph N/A   Overcast
1:34 PM 55.6 °F 49.3 °F 79% 30.22 in 7.0 mi ESE 18.4 mph 24.2 mph N/A   Overcast
1:54 PM 56.1 °F 48.6 °F 76% 30.22 in 10.0 mi ESE 18.4 mph 27.6 mph N/A   Overcast
2:15 PM 56.5 °F 48.2 °F 74% 30.22 in 10.0 mi ESE 21.9 mph 28.8 mph N/A   Overcast
2:34 PM 56.7 °F 47.7 °F 72% 30.23 in 10.0 mi ESE 15.0 mph 24.2 mph N/A   Overcast
2:55 PM 57.0 °F 48.2 °F 72% 30.22 in 10.0 mi ESE 18.4 mph 24.2 mph N/A   Overcast
3:15 PM 56.8 °F 48.2 °F 73% 30.22 in 10.0 mi ESE 19.6 mph - N/A   Overcast
3:34 PM 56.5 °F 48.0 °F 73% 30.21 in 10.0 mi ESE 23.0 mph 27.6 mph N/A   Overcast
3:55 PM 55.6 °F 47.8 °F 75% 30.22 in 7.0 mi ESE 15.0 mph 24.2 mph N/A   Overcast
4:14 PM 54.7 °F 48.4 °F 79% 30.22 in 5.0 mi East 17.3 mph 23.0 mph N/A   Haze
4:35 PM 53.8 °F 48.6 °F 82% 30.22 in 3.0 mi East 17.3 mph - N/A   Haze
4:55 PM 53.6 °F 49.1 °F 85% 30.21 in 4.0 mi ESE 13.8 mph 23.0 mph N/A   Haze
5:15 PM 53.6 °F 48.4 °F 82% 30.21 in 7.0 mi East 16.1 mph - N/A   Overcast
5:34 PM 54.3 °F 48.2 °F 80% 30.21 in 10.0 mi ESE 15.0 mph - N/A   Overcast
5:55 PM 54.5 °F 47.7 °F 78% 30.21 in 10.0 mi ESE 13.8 mph 19.6 mph N/A   Overcast
6:15 PM 54.7 °F 47.5 °F 77% 30.21 in 10.0 mi ESE 17.3 mph - N/A   Overcast
6:35 PM 55.2 °F 45.9 °F 71% 30.20 in 10.0 mi East 15.0 mph 23.0 mph N/A   Overcast
6:54 PM 55.4 °F 45.7 °F 70% 30.20 in 10.0 mi East 15.0 mph - N/A   Overcast
7:15 PM 55.4 °F 45.3 °F 69% 30.20 in 10.0 mi ESE 15.0 mph 19.6 mph N/A   Overcast
7:35 PM 55.2 °F 45.9 °F 71% 30.20 in 10.0 mi East 15.0 mph - N/A   Overcast
7:55 PM 54.9 °F 45.9 °F 72% 30.21 in 10.0 mi ESE 15.0 mph 18.4 mph N/A   Overcast
8:14 PM 54.9 °F 45.5 °F 71% 30.20 in 10.0 mi ESE 13.8 mph 18.4 mph N/A   Overcast
8:35 PM 54.5 °F 45.7 °F 72% 30.20 in 10.0 mi ESE 15.0 mph - N/A   Overcast
8:55 PM 54.5 °F 44.6 °F 69% 30.20 in 10.0 mi ESE 10.4 mph - N/A   Overcast
9:14 PM 54.0 °F 45.5 °F 73% 30.21 in 10.0 mi ESE 10.4 mph - N/A   Overcast
9:35 PM 53.6 °F 45.5 °F 74% 30.22 in 10.0 mi East 10.4 mph - N/A   Overcast
9:54 PM 53.6 °F 45.5 °F 74% 30.22 in 10.0 mi East 9.2 mph - N/A   Overcast
10:15 PM 53.6 °F 45.7 °F 75% 30.21 in 10.0 mi East 9.2 mph - N/A   Overcast
10:35 PM 53.6 °F 45.9 °F 75% 30.22 in 10.0 mi East 9.2 mph - N/A   Overcast
10:55 PM 54.0 °F 44.8 °F 71% 30.22 in 10.0 mi ESE 13.8 mph - N/A   Overcast
11:14 PM 53.8 °F 44.2 °F 70% 30.20 in 10.0 mi ESE 12.7 mph - N/A   Overcast
11:35 PM 52.7 °F 44.8 °F 74% 30.20 in 10.0 mi East 10.4 mph - N/A   Mostly Cloudy
11:55 PM 52.9 °F 44.6 °F 73% 30.20 in 10.0 mi East 10.4 mph - N/A   Mostly Cloudy